KD5NVR Weather Reports


time (UTC)temp
C
wind
direction
speed
KPH
gust
KPH
rain 1hr
cm
rain 24hr
cm
rain mn
cm
humidity
%
barometer
mb
20260504034017 17 186 0.0 3.2 0.00 0.38 0.38 66 1017.4
20260504033017 17 179 1.6 3.2 0.00 0.38 0.38 64 1017.4
20260504032037 17 161 1.6 3.2 0.00 0.38 0.38 64 1017.5
20260504031017 17 124 1.6 4.8 0.00 0.38 0.38 65 1017.4
20260504030017 17 359 1.6 4.8 0.00 0.38 0.38 69 1017.4
20260504025017 17 16 1.6 4.8 0.00 0.38 0.38 64 1017.3
20260504024017 18 13 1.6 8.0 0.00 0.38 0.38 64 1017.4
20260504023017 18 31 0.0 3.2 0.00 0.38 0.38 62 1017.2
20260504022018 19 237 1.6 6.4 0.00 0.38 0.38 58 1017.2
20260504021018 19 38 1.6 6.4 0.00 0.38 0.38 57 1017.4
20260504020018 20 230 1.6 6.4 0.00 0.38 0.38 55 1017.3
20260504015019 20 36 1.6 4.8 0.00 0.38 0.38 55 1017.1
20260504014018 21 191 3.2 6.4 0.00 0.38 0.38 49 1017.2
20260504013016 21 200 4.8 6.4 0.00 0.38 0.38 48 1017.1
20260504012016 21 181 4.8 6.4 0.00 0.38 0.38 48 1016.9
20260504011016 22 183 4.8 8.0 0.00 0.38 0.38 47 1016.8
20260504010017 22 175 4.8 8.0 0.00 0.38 0.38 46 1016.9
20260504005017 22 176 8.0 12.9 0.00 0.38 0.38 45 1016.9
20260504004017 22 169 6.4 12.9 0.00 0.38 0.38 45 1017.0
20260504003017 22 172 9.7 17.7 0.00 0.38 0.38 44 1017.0
20260504002017 23 167 9.7 17.7 0.00 0.38 0.38 43 1017.1
20260504001017 23 175 9.7 17.7 0.00 0.38 0.38 42 1017.1
20260504000037 23 167 11.3 17.7 0.00 0.38 0.38 41 1017.1
20260503235037 23 172 11.3 17.7 0.00 0.38 0.38 41 1017.2
20260503234018 23 178 8.0 14.5 0.00 0.38 0.38 41 1017.3
20260503233018 24 211 11.3 20.9 0.00 0.38 0.38 39 1017.4
20260503232018 24 197 12.9 19.3 0.05 0.38 0.38 39 1017.5
20260503231018 24 200 12.9 20.9 0.10 0.38 0.38 37 1017.5
20260503230016 24 206 17.7 24.1 0.18 0.38 0.38 35 1017.5
20260503225016 24 175 11.3 19.3 0.23 0.38 0.38 37 1017.6
20260503224016 24 170 12.9 27.4 0.38 0.38 0.38 36 1017.6
20260503223016 24 164 12.9 19.3 0.38 0.38 0.38 34 1017.6
20260503222016 24 182 16.1 25.7 0.33 0.33 0.33 36 1017.6
20260503221056 24 197 14.5 29.0 0.28 0.28 0.28 35 1017.7
20260503220017 24 143 12.9 20.9 0.20 0.20 0.20 35 1017.9
20260503215037 24 169 11.3 20.9 0.15 0.15 0.15 35 1018.1
20260503214017 25 183 9.7 19.3 0.00 0.00 0.00 35 1018.4
20260503213017 25 179 11.3 19.3 0.00 0.00 0.00 35 1018.6
20260503212017 24 186 11.3 19.3 0.00 0.00 0.00 33 1018.8
20260503211037 25 177 12.9 24.1 0.00 0.00 0.00 33 1018.9
20260503210018 24 184 12.9 22.5 0.00 0.00 0.00 33 1019.1
20260503205018 24 170 14.5 22.5 0.00 0.00 0.00 34 1019.2
20260503204018 24 168 14.5 20.9 0.00 0.00 0.00 35 1019.5
20260503203018 24 200 16.1 22.5 0.00 0.00 0.00 36 1019.8
20260503202019 24 157 12.9 20.9 0.00 0.00 0.00 34 1019.9
20260503201056 24 176 11.3 22.5 0.00 0.00 0.00 36 1020.1
20260503200036 24 183 14.5 24.1 0.00 0.00 0.00 37 1020.2
20260503195016 23 225 9.7 14.5 0.00 0.00 0.00 38 1020.3
20260503194016 23 170 11.3 20.9 0.00 0.00 0.00 38 1020.6
20260503193017 23 165 8.0 22.5 0.00 0.00 0.00 38 1020.7
20260503192016 24 171 11.3 17.7 0.00 0.00 0.00 37 1020.9
20260503191017 23 195 9.7 17.7 0.00 0.00 0.00 39 1020.8
20260503190017 23 208 11.3 20.9 0.00 0.00 0.00 39 1021.0
20260503185037 23 174 11.3 22.5 0.00 0.00 0.00 37 1021.2
20260503184017 23 145 14.5 22.5 0.00 0.00 0.00 40 1021.2
20260503183037 23 185 8.0 24.1 0.00 0.00 0.00 40 1021.5
20260503182018 23 136 6.4 12.9 0.00 0.00 0.00 41 1021.7
20260503181017 22 141 6.4 16.1 0.00 0.00 0.00 40 1021.9
20260503180018 22 140 9.7 20.9 0.00 0.00 0.00 41 1022.0
20260503175018 22 156 14.5 24.1 0.00 0.00 0.00 43 1022.3
20260503174018 22 217 8.0 19.3 0.00 0.00 0.00 44 1022.7
20260503173018 22 172 14.5 24.1 0.00 0.00 0.00 45 1022.8
20260503172019 22 124 9.7 16.1 0.00 0.00 0.00 46 1022.9
20260503171016 22 154 11.3 20.9 0.00 0.00 0.00 44 1023.1
20260503131017 10 296 1.6 4.8 0.00 0.00 0.00 94 1023.1
20260503081016 9 318 0.0 1.6 0.00 0.00 0.00 93 1021.7
20260503072017 10 311 1.6 4.8 0.00 0.00 0.00 92 1022.5
20260503071018 10 289 0.0 1.6 0.00 0.00 0.00 92 1022.4
20260503055016 11 221 0.0 1.6 0.00 0.00 0.00 88 1022.6
20260503054016 11 50 0.0 1.6 0.00 0.00 0.00 87 1022.6
20260503053016 11 52 0.0 1.6 0.00 0.00 0.00 87 1022.6
20260503052017 11 7 0.0 3.2 0.00 0.00 0.00 86 1022.6
20260503051017 12 356 0.0 1.6 0.00 0.00 0.00 86 1022.4
20260503045017 12 14 0.0 1.6 0.00 0.00 0.00 84 1022.4
20260503044017 12 39 1.6 3.2 0.00 0.00 0.00 83 1022.4
20260503043017 12 15 0.0 3.2 0.00 0.00 0.00 83 1022.3
20260503042018 13 277 0.0 1.6 0.00 0.00 0.00 81 1022.3
20260503041018 13 30 1.6 4.8 0.00 0.00 0.00 79 1022.3
20260503040019 13 39 0.0 1.6 0.00 0.00 0.00 78 1022.3
20260503035039 13 353 1.6 3.2 0.00 0.00 0.00 76 1022.0